Regional Weather Roundup
Issued by NWS Columbia, SC

Home | Current Version | Previous Version | Text Only | Print | Product List | Glossary On
Versions: 1 2 3 4 5 6 7 8 9 10 11 12 13 14 15 16 17 18 19 20 21 22 23 24 25 26 27
000
ASUS42 KCAE 191410
RWRCAE
REGIONAL WEATHER ROUNDUP
NATIONAL WEATHER SERVICE COLUMBIA SC
1000 AM EDT THU APR 19 2018

NOTE: "FAIR" INDICATES FEW OR NO CLOUDS BELOW 12,000 FEET WITH NO
SIGNIFICANT WEATHER AND/OR OBSTRUCTIONS TO VISIBILITY.

NOT ALL STATIONS ARE QUALITY CONTROLLED BY THE NATIONAL
WEATHER SERVICE. USE DATA WITH CAUTION...ESPECIALLY
DEWPOINT OBSERVATIONS.

SCZ001>056-GAZ040-063>065-077-191500-
...UPSTATE SOUTH CAROLINA...

CITY           SKY/WX    TMP DP  RH WIND       PRES   REMARKS
ANDERSON       FAIR      69  45  41 W16       29.92R
LIBERTY        FAIR      69  42  38 W15G21    29.89R
SPARTANBURG    FAIR      70  43  37 W13G18    29.85R
CLEMSON        FAIR      65  36  34 W24G35    29.92R
GREENVILLE     FAIR      71  44  37 W13       29.88R
GREENWOOD      FAIR      69  55  60 W16G23    29.92R
GREER          FAIR      71  45  39 W17G25    29.87R
ROCK HILL      FAIR      70  55  59 W14G23    29.84R
CHESTER        FAIR      70  50  49 SW7       29.86R
LAURENS        FAIR      70  55  60 W12       29.88S


...CENTRAL SOUTH CAROLINA...

CITY           SKY/WX    TMP DP  RH WIND       PRES   REMARKS
COLUMBIA APT   FAIR      74  60  61 W14G25    29.88S
COLUMBIA OWENS FAIR      73  57  57 W18G25    29.89S
MCENTIRE ANGB  SUNNY     73  58  58 SW17      29.88S
ORANGEBURG     FAIR      71  59  65 W21G28    29.92S
SUMTER SHAW    FAIR      73  58  59 SW18G26   29.85S
NEWBERRY       FAIR      70  55  60 SW16G26   29.91S
AIKEN          FAIR      70  59  68 W16       29.95S
BARNWELL       PTSUNNY   72  61  68 W14G22    29.94S
MANNING        FAIR      68  55  64 W13G22    29.91S
CAMDEN         FAIR      73  57  56 SW20G28   29.86S
LANCASTER      FAIR      72  52  49 W17G26    29.84R
WINNSBORO      FAIR      72  55  56 SW10G17   29.88R


...EASTERN AND COASTAL SOUTH CAROLINA...

CITY           SKY/WX    TMP DP  RH WIND       PRES   REMARKS
MYRTLE BEACH   FAIR      74  59  59 W17G25    29.89S
N MYRTLE BCH   FAIR      74  57  55 W16G31    29.86S
CONWAY         FAIR      72  59  64 SW10G22   29.88R HAZE
MARION         FAIR      72  55  56 SW21G29   29.84F HAZE
HARTSVILLE     FAIR      72  55  56 W10G23    29.84S
FLORENCE       FAIR      75  58  55 SW16G25   29.84F
DARLINGTON     FAIR      74  58  57 SW17G25   29.84R
CHARLESTON APT FAIR      74  62  66 W13G23    29.94R
MOUNT PLEASANT FAIR      72  63  73 SW13      29.94S
WALTERBORO     FAIR      72  61  68 W13G22    29.95S
BEAUFORT       FAIR      74  63  68 SW16      29.96


...EASTERN GEORGIA...

CITY           SKY/WX    TMP DP  RH WIND       PRES   REMARKS
AUGUSTA BUSH F FAIR      72  61  68 W13G21    29.94R
AUGUSTA DANIEL FAIR      72  60  66 MISG      29.94S
THOMSON        FAIR      70  58  66 NW14      29.99S
CLAXTON        FAIR      73  64  73 SW9G21    29.99F
SYLVANIA       FAIR      72  64  78 W8        29.98S
STATESBORO     PTSUNNY   72  59  64 W16G22    29.99R
SAVANNAH       FAIR      74  62  66 W15       29.98F


...SOUTHERN NORTH CAROLINA...

CITY           SKY/WX    TMP DP  RH WIND       PRES   REMARKS
CHARLOTTE      FAIR      73  55  53 W12       29.83R
MONROE         FAIR      72  55  55 W24G31    29.82R
WADESBORO      FAIR      73  54  51 W8G17     29.81R
ROCKINGHAM     FAIR      73  57  58 SW21      29.81S
RUTHERFORDTON  FAIR      64  40  41 NW9       29.90R
ASHEVILLE      FAIR      56  38  50 N9G17     29.92R

$$




USA.gov is the U.S. government's official web portal to all federal, state and local government web resources and services.